Time,TemperatureF,DewpointF,PressureIn,WindDirection,WindDirectionDegrees,WindSpeedMPH,WindSpeedGustMPH,Humidity,HourlyPrecipIn,Conditions,Clouds,dailyrainin,SoftwareType,DateUTC
2013-01-09 00:05:00,73.8,72.0,30.15,ESE,102,0.0,-999.0,95,-99.99,,,0.00,weatherlink.com 1.10,2013-01-09 05:05:00,
2013-01-09 00:20:00,73.7,72.0,30.15,SE,130,0.0,-999.0,95,-99.99,,,0.00,weatherlink.com 1.10,2013-01-09 05:20:00,
2013-01-09 00:35:00,73.7,72.0,30.14,SE,144,0.0,-999.0,95,-99.99,,,0.00,weatherlink.com 1.10,2013-01-09 05:35:00,
2013-01-09 00:50:00,73.6,72.0,30.14,SSE,156,0.0,-999.0,95,-99.99,,,0.00,weatherlink.com 1.10,2013-01-09 05:50:00,
2013-01-09 01:05:00,73.4,72.0,30.14,ESE,114,0.0,-999.0,95,-99.99,,,0.00,weatherlink.com 1.10,2013-01-09 06:05:00,
2013-01-09 01:20:00,73.4,72.0,30.15,SSE,161,0.0,-999.0,95,-99.99,,,0.00,weatherlink.com 1.10,2013-01-09 06:20:00,
2013-01-09 01:35:00,73.7,72.0,30.15,South,170,0.0,-999.0,94,-99.99,,,0.00,weatherlink.com 1.10,2013-01-09 06:35:00,
2013-01-09 01:50:00,74.2,72.0,30.15,SSW,202,0.0,-999.0,93,-99.99,,,0.00,weatherlink.com 1.10,2013-01-09 06:50:00,
2013-01-09 02:05:00,74.5,72.0,30.15,ESE,121,0.0,-999.0,91,-99.99,,,0.00,weatherlink.com 1.10,2013-01-09 07:05:00,
2013-01-09 02:20:00,74.6,72.0,30.16,SE,134,0.0,-999.0,91,-99.99,,,0.00,weatherlink.com 1.10,2013-01-09 07:20:00,
2013-01-09 02:35:00,74.8,72.0,30.16,ESE,121,0.0,-999.0,90,-99.99,,,0.00,weatherlink.com 1.10,2013-01-09 07:35:00,
2013-01-09 02:50:00,74.8,72.0,30.16,SSE,148,0.0,-999.0,90,-99.99,,,0.00,weatherlink.com 1.10,2013-01-09 07:50:00,
2013-01-09 03:05:00,74.8,71.0,30.16,SE,135,0.0,-999.0,89,-99.99,,,0.00,weatherlink.com 1.10,2013-01-09 08:05:00,
2013-01-09 03:20:00,74.9,72.0,30.16,SE,133,0.0,-999.0,89,-99.99,,,0.00,weatherlink.com 1.10,2013-01-09 08:20:00,
2013-01-09 03:35:00,75.0,72.0,30.16,SSE,150,0.0,-999.0,89,-99.99,,,0.00,weatherlink.com 1.10,2013-01-09 08:35:00,
2013-01-09 03:50:00,75.1,72.0,30.17,SSE,150,0.0,-999.0,89,-99.99,,,0.00,weatherlink.com 1.10,2013-01-09 08:50:00,
2013-01-09 04:05:00,75.3,72.0,30.17,SE,126,0.0,-999.0,89,-99.99,,,0.00,weatherlink.com 1.10,2013-01-09 09:05:00,
2013-01-09 04:20:00,75.4,72.0,30.17,SE,146,0.0,-999.0,89,-99.99,,,0.00,weatherlink.com 1.10,2013-01-09 09:20:00,
2013-01-09 04:35:00,75.5,72.0,30.17,SSE,156,0.0,-999.0,89,-99.99,,,0.00,weatherlink.com 1.10,2013-01-09 09:35:00,
2013-01-09 04:50:00,75.5,72.0,30.18,SSE,150,0.0,-999.0,88,-99.99,,,0.00,weatherlink.com 1.10,2013-01-09 09:50:00,
2013-01-09 05:05:00,75.5,71.0,30.18,East,80,0.0,-999.0,87,-99.99,,,0.00,weatherlink.com 1.10,2013-01-09 10:05:00,
2013-01-09 05:20:00,75.2,71.0,30.18,South,183,0.0,-999.0,87,-99.99,,,0.00,weatherlink.com 1.10,2013-01-09 10:20:00,
2013-01-09 05:35:00,74.9,71.0,30.18,SSE,159,0.0,-999.0,88,-99.99,,,0.00,weatherlink.com 1.10,2013-01-09 10:35:00,
2013-01-09 05:50:00,74.7,71.0,30.18,ESE,118,0.0,-999.0,87,-99.99,,,0.00,weatherlink.com 1.10,2013-01-09 10:50:00,
2013-01-09 06:05:00,74.5,71.0,30.18,SSW,201,0.0,-999.0,87,-99.99,,,0.00,weatherlink.com 1.10,2013-01-09 11:05:00,
2013-01-09 06:20:00,74.5,71.0,30.18,East,86,0.0,-999.0,87,-99.99,,,0.00,weatherlink.com 1.10,2013-01-09 11:20:00,
2013-01-09 06:35:00,74.6,71.0,30.18,ESE,110,0.0,-999.0,87,-99.99,,,0.00,weatherlink.com 1.10,2013-01-09 11:35:00,
2013-01-09 06:50:00,74.6,71.0,30.19,SSE,163,0.0,-999.0,87,-99.99,,,0.00,weatherlink.com 1.10,2013-01-09 11:50:00,
2013-01-09 07:05:00,74.5,71.0,30.20,South,169,0.0,-999.0,87,-99.99,,,0.00,weatherlink.com 1.10,2013-01-09 12:05:00,
2013-01-09 07:20:00,74.6,71.0,30.21,South,188,0.0,-999.0,87,-99.99,,,0.00,weatherlink.com 1.10,2013-01-09 12:20:00,
2013-01-09 07:35:00,74.6,71.0,30.21,East,83,0.0,-999.0,87,-99.99,,,0.00,weatherlink.com 1.10,2013-01-09 12:35:00,
2013-01-09 07:50:00,74.8,70.0,30.22,South,169,0.0,-999.0,86,-99.99,,,0.00,weatherlink.com 1.10,2013-01-09 12:50:00,
2013-01-09 08:05:00,75.1,70.0,30.23,SE,128,0.0,-999.0,85,-99.99,,,0.00,weatherlink.com 1.10,2013-01-09 13:05:00,
2013-01-09 08:20:00,76.0,71.0,30.23,ESE,114,0.0,-999.0,84,-99.99,,,0.00,weatherlink.com 1.10,2013-01-09 13:20:00,
2013-01-09 08:35:00,76.8,71.0,30.24,SE,130,0.0,-999.0,82,-99.99,,,0.00,weatherlink.com 1.10,2013-01-09 13:35:00,
2013-01-09 08:50:00,77.0,71.0,30.24,East,98,0.0,-999.0,82,-99.99,,,0.00,weatherlink.com 1.10,2013-01-09 13:50:00,
2013-01-09 09:05:00,77.2,71.0,30.25,East,79,0.0,-999.0,82,-99.99,,,0.00,weatherlink.com 1.10,2013-01-09 14:05:00,
2013-01-09 09:20:00,77.5,71.0,30.25,East,98,0.0,-999.0,80,-99.99,,,0.00,weatherlink.com 1.10,2013-01-09 14:20:00,
2013-01-09 09:36:00,78.3,72.0,30.26,South,171,0.0,-999.0,81,-99.99,,,0.00,weatherlink.com 1.10,2013-01-09 14:36:00,
2013-01-09 09:51:00,78.5,72.0,30.26,WSW,244,0.0,-999.0,79,-99.99,,,0.00,weatherlink.com 1.10,2013-01-09 14:51:00,
2013-01-09 10:06:00,79.3,72.0,30.26,SSE,148,0.0,-999.0,77,-99.99,,,0.00,weatherlink.com 1.10,2013-01-09 15:06:00,
2013-01-09 10:21:00,79.5,72.0,30.25,SE,130,0.0,-999.0,77,-99.99,,,0.00,weatherlink.com 1.10,2013-01-09 15:21:00,
2013-01-09 10:36:00,79.7,72.0,30.25,SSW,196,0.0,-999.0,78,-99.99,,,0.00,weatherlink.com 1.10,2013-01-09 15:36:00,
2013-01-09 10:51:00,79.6,72.0,30.25,East,88,0.0,-999.0,77,-99.99,,,0.00,weatherlink.com 1.10,2013-01-09 15:51:00,
2013-01-09 11:06:00,79.6,72.0,30.24,ESE,120,0.0,-999.0,77,-99.99,,,0.00,weatherlink.com 1.10,2013-01-09 16:06:00,
2013-01-09 11:21:00,80.1,72.0,30.24,SSW,194,0.0,-999.0,76,-99.99,,,0.00,weatherlink.com 1.10,2013-01-09 16:21:00,
2013-01-09 11:36:00,80.1,72.0,30.23,SSW,196,0.0,-999.0,77,-99.99,,,0.00,weatherlink.com 1.10,2013-01-09 16:36:00,
2013-01-09 11:51:00,80.1,72.0,30.23,SSW,202,0.0,-999.0,77,-99.99,,,0.00,weatherlink.com 1.10,2013-01-09 16:51:00,
2013-01-09 12:06:00,80.5,72.0,30.23,SSE,149,0.0,-999.0,75,-99.99,,,0.00,weatherlink.com 1.10,2013-01-09 17:06:00,
2013-01-09 12:21:00,80.0,72.0,30.22,SSE,154,0.0,-999.0,77,-99.99,,,0.00,weatherlink.com 1.10,2013-01-09 17:21:00,
2013-01-09 12:36:00,80.7,73.0,30.21,ESE,123,0.0,-999.0,77,-99.99,,,0.00,weatherlink.com 1.10,2013-01-09 17:36:00,
2013-01-09 12:51:00,80.5,72.0,30.21,SSE,167,0.0,-999.0,75,-99.99,,,0.00,weatherlink.com 1.10,2013-01-09 17:51:00,
2013-01-09 13:06:00,81.0,73.0,30.21,SSE,166,0.0,-999.0,76,-99.99,,,0.00,weatherlink.com 1.10,2013-01-09 18:06:00,
2013-01-09 13:21:00,81.6,73.0,30.20,South,171,0.0,-999.0,74,-99.99,,,0.00,weatherlink.com 1.10,2013-01-09 18:21:00,
2013-01-09 13:36:00,82.0,73.0,30.20,East,80,0.0,-999.0,75,-99.99,,,0.00,weatherlink.com 1.10,2013-01-09 18:36:00,
2013-01-09 13:51:00,81.9,72.0,30.20,SSE,157,0.0,-999.0,73,-99.99,,,0.00,weatherlink.com 1.10,2013-01-09 18:51:00,
2013-01-09 14:21:00,81.7,73.0,30.19,South,180,0.0,-999.0,74,-99.99,,,0.00,weatherlink.com 1.10,2013-01-09 19:21:00,
2013-01-09 14:36:00,81.3,72.0,30.19,ESE,117,0.0,-999.0,73,-99.99,,,0.00,weatherlink.com 1.10,2013-01-09 19:36:00,
2013-01-09 14:51:00,80.8,72.0,30.19,South,191,0.0,-999.0,75,-99.99,,,0.00,weatherlink.com 1.10,2013-01-09 19:51:00,
2013-01-09 15:06:00,81.0,72.0,30.19,WSW,256,0.0,-999.0,74,-99.99,,,0.00,weatherlink.com 1.10,2013-01-09 20:06:00,
2013-01-09 15:21:00,81.0,72.0,30.19,East,90,0.0,-999.0,74,-99.99,,,0.00,weatherlink.com 1.10,2013-01-09 20:21:00,
2013-01-09 15:36:00,80.6,72.0,30.20,ESE,111,0.0,-999.0,74,-99.99,,,0.00,weatherlink.com 1.10,2013-01-09 20:36:00,
2013-01-09 15:51:00,80.2,72.0,30.20,SE,134,0.0,-999.0,75,-99.99,,,0.00,weatherlink.com 1.10,2013-01-09 20:51:00,
2013-01-09 16:06:00,79.9,72.0,30.20,East,94,0.0,-999.0,76,-99.99,,,0.00,weatherlink.com 1.10,2013-01-09 21:06:00,
2013-01-09 16:21:00,79.2,72.0,30.20,SE,136,0.0,-999.0,78,-99.99,,,0.00,weatherlink.com 1.10,2013-01-09 21:21:00,
2013-01-09 16:36:00,78.7,72.0,30.20,ESE,115,0.0,-999.0,79,-99.99,,,0.00,weatherlink.com 1.10,2013-01-09 21:36:00,
2013-01-09 16:51:00,78.5,72.0,30.21,SSE,157,0.0,-999.0,79,-99.99,,,0.00,weatherlink.com 1.10,2013-01-09 21:51:00,
2013-01-09 17:06:00,78.0,71.0,30.21,ESE,122,0.0,-999.0,79,-99.99,,,0.00,weatherlink.com 1.10,2013-01-09 22:06:00,
2013-01-09 17:21:00,77.7,71.0,30.21,SSE,159,0.0,-999.0,80,-99.99,,,0.00,weatherlink.com 1.10,2013-01-09 22:21:00,
2013-01-09 17:36:00,77.3,71.0,30.22,ESE,123,0.0,-999.0,80,-99.99,,,0.00,weatherlink.com 1.10,2013-01-09 22:36:00,
2013-01-09 17:51:00,76.9,71.0,30.22,SSE,167,0.0,-999.0,81,-99.99,,,0.00,weatherlink.com 1.10,2013-01-09 22:51:00,
2013-01-09 18:06:00,76.6,71.0,30.23,ESE,105,0.0,-999.0,82,-99.99,,,0.00,weatherlink.com 1.10,2013-01-09 23:06:00,
2013-01-09 18:21:00,76.7,71.0,30.23,SSE,153,0.0,-999.0,82,-99.99,,,0.00,weatherlink.com 1.10,2013-01-09 23:21:00,
2013-01-09 18:36:00,76.6,71.0,30.23,ENE,78,0.0,-999.0,82,-99.99,,,0.00,weatherlink.com 1.10,2013-01-09 23:36:00,
2013-01-09 18:51:00,76.4,71.0,30.23,East,95,0.0,-999.0,82,-99.99,,,0.00,weatherlink.com 1.10,2013-01-09 23:51:00,
2013-01-09 19:06:00,76.3,70.0,30.24,ENE,64,0.0,-999.0,82,-99.99,,,0.00,weatherlink.com 1.10,2013-01-10 00:06:00,
2013-01-09 19:21:00,76.2,70.0,30.24,SE,140,0.0,-999.0,82,-99.99,,,0.00,weatherlink.com 1.10,2013-01-10 00:21:00,
2013-01-09 19:36:00,76.1,71.0,30.24,ENE,58,0.0,-999.0,83,-99.99,,,0.00,weatherlink.com 1.10,2013-01-10 00:36:00,
2013-01-09 19:51:00,76.3,70.0,30.25,SSE,156,0.0,-999.0,82,-99.99,,,0.00,weatherlink.com 1.10,2013-01-10 00:51:00,
2013-01-09 20:06:00,76.2,70.0,30.25,ESE,117,0.0,-999.0,82,-99.99,,,0.00,weatherlink.com 1.10,2013-01-10 01:06:00,
2013-01-09 20:21:00,76.1,70.0,30.25,SE,136,0.0,-999.0,82,-99.99,,,0.00,weatherlink.com 1.10,2013-01-10 01:21:00,
2013-01-09 20:36:00,75.9,70.0,30.25,SE,124,0.0,-999.0,82,-99.99,,,0.00,weatherlink.com 1.10,2013-01-10 01:36:00,
2013-01-09 20:51:00,75.8,70.0,30.25,ESE,121,0.0,-999.0,83,-99.99,,,0.00,weatherlink.com 1.10,2013-01-10 01:51:00,
2013-01-09 21:06:00,75.8,70.0,30.26,SE,130,0.0,-999.0,83,-99.99,,,0.00,weatherlink.com 1.10,2013-01-10 02:06:00,
2013-01-09 21:21:00,75.7,70.0,30.26,SE,135,0.0,-999.0,82,-99.99,,,0.00,weatherlink.com 1.10,2013-01-10 02:21:00,
2013-01-09 21:36:00,75.6,70.0,30.27,SE,143,0.0,-999.0,83,-99.99,,,0.00,weatherlink.com 1.10,2013-01-10 02:36:00,
2013-01-09 21:51:00,75.7,70.0,30.27,ESE,119,0.0,-999.0,83,-99.99,,,0.00,weatherlink.com 1.10,2013-01-10 02:51:00,
2013-01-09 22:06:00,75.8,70.0,30.26,ESE,107,0.0,-999.0,82,-99.99,,,0.00,weatherlink.com 1.10,2013-01-10 03:06:00,
2013-01-09 22:21:00,76.0,70.0,30.26,East,89,0.0,-999.0,82,-99.99,,,0.00,weatherlink.com 1.10,2013-01-10 03:21:00,
2013-01-09 22:36:00,76.0,70.0,30.26,SE,146,0.0,-999.0,81,-99.99,,,0.00,weatherlink.com 1.10,2013-01-10 03:36:00,
2013-01-09 22:51:00,75.9,70.0,30.26,SE,138,0.0,-999.0,81,-99.99,,,0.00,weatherlink.com 1.10,2013-01-10 03:51:00,
2013-01-09 23:06:00,75.6,70.0,30.26,ESE,106,0.0,-999.0,82,-99.99,,,0.00,weatherlink.com 1.10,2013-01-10 04:06:00,
2013-01-09 23:21:00,75.5,70.0,30.26,SSE,161,0.0,-999.0,82,-99.99,,,0.00,weatherlink.com 1.10,2013-01-10 04:21:00,
2013-01-09 23:36:00,75.5,70.0,30.26,SE,134,0.0,-999.0,82,-99.99,,,0.00,weatherlink.com 1.10,2013-01-10 04:36:00,
2013-01-09 23:51:00,75.6,70.0,30.26,SE,134,0.0,-999.0,82,-99.99,,,0.00,weatherlink.com 1.10,2013-01-10 04:51:00,